CW1187 Weather Reports


Display with metric or nautical units.
time (UTC)temp
F
wind
direction
speed
MPH
gust
MPH
rain 1hr
in
rain 24hr
in
rain mn
in
humidity
%
barometer
mb
20260504151023 66 227 4.0 11.0 0.00 0.00 0.00 61 1008.1
20260504150519 66 223 4.0 10.0 0.00 0.00 0.00 61 1008.0
20260504141022 62 222 4.0 9.0 0.00 0.00 0.00 66 1008.3
20260504140521 62 215 3.0 10.0 0.00 0.00 0.00 67 1008.2
20260504130521 58 154 6.0 13.0 0.00 0.00 0.00 69 1008.1
20260504110519 54 183 3.0 9.0 0.00 0.00 0.00 67 1008.2
20260504100517 54 223 4.0 13.0 0.00 0.00 0.00 65 1008.4
20260504081542 52 182 3.0 7.0 0.00 0.00 0.00 65 1009.2
20260504081019 52 173 2.0 7.0 0.00 0.00 0.00 65 1009.2
20260504080522 53 128 2.0 7.0 0.00 0.00 0.00 64 1009.1
20260504050522 55 140 5.0 11.0 0.00 0.00 0.00 59 1011.0
20260504045522 55 175 5.0 11.0 0.00 0.00 0.00 59 1011.1
20260504045021 55 139 4.0 10.0 0.00 0.00 0.00 59 1011.0
20260504044542 55 184 5.0 10.0 0.00 0.00 0.00 59 1010.9
20260504044020 55 207 5.0 12.0 0.00 0.00 0.00 59 1011.1
20260504043520 55 182 5.0 12.0 0.00 0.00 0.00 59 1011.1
20260504043042 55 163 4.0 11.0 0.00 0.00 0.00 59 1011.1
20260504042520 55 186 4.0 12.0 0.00 0.00 0.00 58 1011.1
20260504042018 55 190 5.0 12.0 0.00 0.00 0.00 58 1011.2
20260504041541 55 186 4.0 12.0 0.00 0.00 0.00 58 1011.2
20260504041020 55 186 5.0 12.0 0.00 0.00 0.00 58 1011.2
20260504040522 55 194 4.0 10.0 0.00 0.00 0.00 59 1011.4
20260504040047 55 188 4.0 11.0 0.00 0.00 0.00 59 1011.4
20260504035521 55 172 4.0 11.0 0.00 0.00 0.00 59 1011.4
20260504035021 55 194 4.0 9.0 0.00 0.00 0.00 59 1011.4
20260504034546 55 179 4.0 9.0 0.00 0.00 0.00 59 1011.5
20260504034021 55 211 4.0 11.0 0.00 0.00 0.00 59 1011.6
20260504033525 55 168 3.0 11.0 0.00 0.00 0.00 59 1011.6
20260504033036 55 198 4.0 11.0 0.00 0.00 0.00 59 1011.6
20260504032520 55 196 4.0 11.0 0.00 0.00 0.00 59 1011.7
20260504032020 55 201 4.0 11.0 0.00 0.00 0.00 60 1011.7
20260504031536 55 198 4.0 10.0 0.00 0.00 0.00 60 1011.7
20260504031021 55 198 4.0 10.0 0.00 0.00 0.00 60 1011.7
20260504030520 55 153 4.0 9.0 0.00 0.00 0.00 60 1011.7
20260504030043 55 186 3.0 10.0 0.00 0.00 0.00 60 1011.7
20260504025522 55 186 5.0 10.0 0.00 0.00 0.00 60 1011.7
20260504025022 55 211 4.0 11.0 0.00 0.00 0.00 60 1011.7
20260504024542 55 164 4.0 11.0 0.00 0.00 0.00 60 1011.7
20260504024024 55 186 2.0 10.0 0.00 0.00 0.00 60 1011.7
20260504023521 55 144 3.0 9.0 0.00 0.00 0.00 60 1011.8
20260504023040 55 184 3.0 9.0 0.00 0.00 0.00 60 1011.8
20260504022521 55 178 4.0 7.0 0.00 0.00 0.00 60 1011.7
20260504022023 55 186 3.0 7.0 0.00 0.00 0.00 60 1011.7
20260504021536 55 158 2.0 8.0 0.00 0.00 0.00 60 1011.8
20260504021020 55 178 3.0 9.0 0.00 0.00 0.00 60 1011.8
20260504020520 55 174 3.0 10.0 0.00 0.00 0.00 59 1011.8
20260504020040 55 179 4.0 10.0 0.00 0.00 0.00 59 1011.8
20260504015521 56 179 3.0 8.0 0.00 0.00 0.00 58 1011.7
20260504015022 56 186 4.0 9.0 0.00 0.00 0.00 57 1011.7
20260504014558 56 164 5.0 9.0 0.00 0.00 0.00 57 1011.7
20260504014024 56 183 3.0 8.0 0.00 0.00 0.00 56 1011.7
20260504013525 57 202 4.0 11.0 0.00 0.00 0.00 56 1011.7
20260504013045 57 198 4.0 11.0 0.00 0.00 0.00 56 1011.7
20260504012522 57 199 5.0 11.0 0.00 0.00 0.00 55 1011.7
20260504012021 57 189 4.0 11.0 0.00 0.00 0.00 55 1011.7
20260504011536 57 221 4.0 9.0 0.00 0.00 0.00 55 1011.7
20260504011019 57 181 3.0 9.0 0.00 0.00 0.00 55 1011.7
20260504010519 57 171 3.0 12.0 0.00 0.00 0.00 55 1011.7
20260504010037 57 173 3.0 12.0 0.00 0.00 0.00 54 1011.7
20260504005523 57 189 5.0 10.0 0.00 0.00 0.00 54 1011.7
20260504005021 57 184 5.0 14.0 0.00 0.00 0.00 53 1011.7
20260504004543 57 174 4.0 14.0 0.00 0.00 0.00 53 1011.7
20260504004019 57 209 3.0 9.0 0.00 0.00 0.00 53 1011.7
20260504003521 58 278 4.0 15.0 0.00 0.00 0.00 52 1011.6
20260504003038 58 194 3.0 15.0 0.00 0.00 0.00 52 1011.6
20260504002517 58 202 6.0 14.0 0.00 0.00 0.00 51 1011.6
20260504002017 58 198 3.0 10.0 0.00 0.00 0.00 50 1011.6
20260504001543 58 205 4.0 10.0 0.00 0.00 0.00 50 1011.7
20260504001020 58 215 4.0 10.0 0.00 0.00 0.00 50 1011.5
20260504000520 58 190 3.0 9.0 0.00 0.00 0.00 49 1011.6
20260504000037 58 193 4.0 10.0 0.00 0.00 0.00 49 1011.6
20260503235519 58 227 3.0 10.0 0.00 0.00 0.00 49 1011.7
20260503235019 58 203 4.0 10.0 0.00 0.00 0.00 49 1011.7
20260503234545 59 227 3.0 11.0 0.00 0.00 0.00 48 1011.7
20260503234019 59 157 4.0 14.0 0.00 0.00 0.00 48 1011.6
20260503233517 59 204 4.0 15.0 0.00 0.00 0.00 47 1011.6
20260503233041 59 221 6.0 19.0 0.00 0.00 0.00 48 1011.8
20260503232519 59 186 5.0 19.0 0.00 0.00 0.00 47 1011.8
20260503232017 59 250 5.0 16.0 0.00 0.00 0.00 46 1011.7
20260503231542 59 212 6.0 16.0 0.00 0.00 0.00 46 1011.7
20260503231022 60 233 5.0 16.0 0.00 0.00 0.00 47 1011.8
20260503230520 60 190 6.0 15.0 0.00 0.00 0.00 45 1011.7
20260503230042 60 201 5.0 15.0 0.00 0.00 0.00 45 1011.7
20260503225521 60 193 5.0 19.0 0.00 0.00 0.00 44 1011.7
20260503225022 60 213 7.0 19.0 0.00 0.00 0.00 44 1011.6
20260503224536 60 207 6.0 15.0 0.00 0.00 0.00 45 1011.8
20260503224018 60 215 5.0 18.0 0.00 0.00 0.00 45 1011.9
20260503223521 60 175 6.0 18.0 0.00 0.00 0.00 44 1012.1
20260503223035 60 171 3.0 14.0 0.00 0.00 0.00 45 1012.2
20260503222517 60 180 4.0 14.0 0.00 0.00 0.00 50 1012.1
20260503222022 60 225 5.0 17.0 0.00 0.00 0.00 43 1012.2
20260503221541 61 198 6.0 17.0 0.00 0.00 0.00 43 1012.0
20260503221018 60 219 5.0 13.0 0.00 0.00 0.00 45 1012.0
20260503220519 60 193 5.0 13.0 0.00 0.00 0.00 44 1012.3
20260503220047 60 186 5.0 15.0 0.00 0.00 0.00 44 1012.3
20260503215520 60 155 5.0 16.0 0.00 0.00 0.00 48 1012.4
20260503215017 60 180 6.0 16.0 0.00 0.00 0.00 44 1012.6
20260503214535 60 213 7.0 19.0 0.00 0.00 0.00 43 1012.5
20260503214017 60 169 9.0 19.0 0.00 0.00 0.00 43 1012.7
20260503213517 61 129 7.0 16.0 0.00 0.00 0.00 42 1012.7
20260503213032 61 227 3.0 14.0 0.00 0.00 0.00 43 1013.0
20260503212521 61 207 5.0 14.0 0.00 0.00 0.00 41 1013.1
20260503212021 61 175 5.0 14.0 0.00 0.00 0.00 42 1013.3
20260503211541 61 217 4.0 16.0 0.00 0.00 0.00 43 1013.4
20260503211020 61 184 6.0 16.0 0.00 0.00 0.00 40 1013.5
20260503210520 62 213 6.0 16.0 0.00 0.00 0.00 41 1013.6
20260503210040 62 236 5.0 17.0 0.00 0.00 0.00 41 1013.6
20260503205521 62 203 8.0 18.0 0.00 0.00 0.00 40 1013.6
20260503205019 62 199 9.0 18.0 0.00 0.00 0.00 40 1013.7
20260503204539 61 209 7.0 16.0 0.00 0.00 0.00 39 1013.7
20260503204020 61 203 5.0 16.0 0.00 0.00 0.00 40 1013.8
20260503203521 60 210 5.0 11.0 0.00 0.00 0.00 43 1013.8
20260503203045 60 193 3.0 12.0 0.00 0.00 0.00 41 1013.9
20260503202521 60 246 4.0 12.0 0.00 0.00 0.00 40 1014.2
20260503202022 60 243 3.0 11.0 0.00 0.00 0.00 41 1014.2
20260503201542 60 258 5.0 11.0 0.00 0.00 0.00 39 1014.4
20260503201020 60 185 4.0 13.0 0.00 0.00 0.00 40 1014.7
20260503200520 60 235 6.0 13.0 0.00 0.00 0.00 40 1015.0
20260503200047 60 235 4.0 18.0 0.00 0.00 0.00 41 1015.1
20260503195520 60 238 7.0 18.0 0.00 0.00 0.00 38 1015.0
20260503195020 60 193 3.0 14.0 0.00 0.00 0.00 41 1015.0
20260503194542 60 232 6.0 16.0 0.00 0.00 0.00 40 1015.0
20260503194020 60 217 6.0 16.0 0.00 0.00 0.00 38 1015.1
20260503193520 60 147 6.0 15.0 0.00 0.00 0.00 38 1015.1
20260503193043 60 212 5.0 15.0 0.00 0.00 0.00 38 1015.1
20260503192520 60 213 5.0 14.0 0.00 0.00 0.00 39 1015.2
20260503192021 61 202 6.0 14.0 0.00 0.00 0.00 37 1015.2
20260503191542 61 273 6.0 11.0 0.00 0.00 0.00 40 1015.0
20260503191021 60 250 4.0 10.0 0.00 0.00 0.00 39 1015.2
20260503190520 60 244 4.0 14.0 0.00 0.00 0.00 46 1015.3
20260503190042 59 234 4.0 14.0 0.00 0.00 0.00 39 1015.5
20260503185520 59 202 4.0 11.0 0.00 0.00 0.00 41 1015.8
20260503185023 59 228 3.0 11.0 0.00 0.00 0.00 40 1016.0
20260503184554 59 232 4.0 12.0 0.00 0.00 0.00 40 1016.0
20260503184019 59 235 5.0 17.0 0.00 0.00 0.00 38 1016.1
20260503183520 59 217 5.0 17.0 0.00 0.00 0.00 37 1016.2
20260503183051 60 174 5.0 16.0 0.00 0.00 0.00 44 1016.2
20260503182520 60 223 7.0 16.0 0.00 0.00 0.00 41 1016.2
20260503182021 61 192 5.0 12.0 0.00 0.00 0.00 38 1016.2
20260503181542 61 245 5.0 14.0 0.00 0.00 0.00 38 1016.3
20260503181021 61 221 6.0 14.0 0.00 0.00 0.00 40 1016.3
20260503180521 61 225 7.0 15.0 0.00 0.00 0.00 38 1016.4
20260503180043 61 211 6.0 18.0 0.00 0.00 0.00 38 1016.5
20260503175521 60 199 6.0 18.0 0.00 0.00 0.00 40 1016.6
20260503175025 60 202 6.0 13.0 0.00 0.00 0.00 39 1016.7
20260503174540 60 207 6.0 13.0 0.00 0.00 0.00 36 1016.7
20260503174021 60 237 6.0 21.0 0.00 0.00 0.00 39 1016.8
20260503173524 60 146 7.0 21.0 0.00 0.00 0.00 38 1016.9
20260503173037 60 175 6.0 19.0 0.00 0.00 0.00 39 1017.0
20260503172521 59 235 7.0 17.0 0.00 0.00 0.00 39 1017.1
20260503172021 59 228 4.0 16.0 0.00 0.00 0.00 43 1017.2
20260503171535 59 237 7.0 16.0 0.00 0.00 0.00 39 1017.2
20260503171020 60 154 6.0 16.0 0.00 0.00 0.00 37 1017.1
20260503170521 60 215 8.0 16.0 0.00 0.00 0.00 38 1017.1